User: anonymous   Login
Location: ????????
(37.9452°N, 23.1472°E)
Time: 02:34:02
(UTC+00:00)
Language:

SL-27 R/B - Orbit

View from above orbital plane
View from above orbital plane
View from above satellite
View from above satellite

Ground track
Ground track

The orbit data is extracted from the following two-line orbital elements,

1 40354U 14084B   24167.54673179  .00053170  00000-0  33629-3 0  9997
2 40354  74.7221 213.3634 0017872   2.8862 357.2468 15.76109253533885
Epoch (UTC): 15 June 2024 13:07:17
Eccentricity: 0.0017872
inclination: 74.7221°
perigee height: 329 km
apogee height: 353 km
right ascension of ascending node: 213.3634°
argument of perigee: 2.8862°
revolutions per day: 15.76109253
mean anomaly at epoch: 357.2468°
orbit number at epoch: 53388

The dashed part of the orbit path shows where the satellite is in the earth's shadow,  

DLR